Date String (YYYY-MM-DD hh:mm:ss) UTC,Instrument flags,absolute air pressure of the measurement (hPa),sample flow rate (lpm),inlet stack bypass flow (lpm),air temperature of the measurement (°C),ambient temperature measured by the external sensor (°C),aerosol sample conditioner tube jacket temperature (°C),OPC LED temperature (°C),internal box temperature (°C),relative humidity of the measurement (%),span deviation,mass concentration of particles derived from Lorenz-Mie calculation of OPC scattering (μg/m³),mass concentration of particles derived from Lorenz-Mie calculation of OPC scattering (μg/m³),mass concentration of particles derived from Lorenz-Mie calculation of OPC scattering (μg/m³)
DateTimeUTC,F1_M11,P_M11,Q1_M11,Q2_M11,T1_M11,T2_M11,T3_M11,T4_M11,T5_M11,U1_M11,ZSPAN_M11,X2_M11,X0_M11,X1_M11
2024-01-11 11:00:00,SystemResetWarning,0808.3,5.01,000.00,018.8,018.2,000.0,027.2,020.0,9.8,0000.0,0004.32,0009.15,0004.06
2024-01-11 11:01:00,SystemResetWarning,0808.2,5.00,000.00,018.8,018.2,000.0,027.2,020.0,9.8,0000.0,0004.31,0008.61,0004.06
2024-01-11 11:02:00,SystemResetWarning,0808.3,5.00,000.00,018.8,018.2,000.0,027.2,020.0,9.8,0000.0,0004.33,0008.30,0004.05
2024-01-11 11:03:00,SystemResetWarning,0808.3,5.00,000.00,018.8,018.1,000.0,027.2,020.0,9.8,0000.0,0004.32,0007.99,0004.02
2024-01-11 11:04:00,SystemResetWarning,0808.3,5.00,000.00,018.8,018.1,000.0,027.2,020.0,9.8,0000.0,0004.31,0007.80,0004.01
2024-01-11 11:05:00,SystemResetWarning,0808.4,5.00,000.00,018.8,018.1,000.0,027.2,020.0,9.8,0000.0,0004.29,0007.83,0003.98
2024-01-11 11:06:00,SystemResetWarning,0808.5,5.00,000.00,018.8,018.0,000.0,027.2,020.0,9.8,0000.0,0004.25,0008.14,0003.94
2024-01-11 11:07:00,SystemResetWarning,0808.5,5.00,000.00,018.8,018.0,000.0,027.2,020.0,9.8,0000.0,0004.22,0008.18,0003.89
2024-01-11 11:08:00,SystemResetWarning,0808.6,4.99,000.00,018.8,018.0,000.0,027.2,020.0,9.8,0000.0,0004.18,0008.15,0003.83
2024-01-11 11:09:00,SystemResetWarning,0808.5,5.00,000.00,018.8,018.0,000.0,027.2,020.0,9.8,0000.0,0004.15,0008.32,0003.80
2024-01-11 11:10:00,SystemResetWarning,0808.5,4.99,000.00,018.8,017.9,000.0,027.2,020.0,9.8,0000.0,0004.13,0008.81,0003.76
2024-01-11 11:11:00,SystemResetWarning,0808.5,5.00,000.00,018.8,017.9,000.0,027.2,020.0,9.8,0000.0,0004.13,0008.93,0003.74
2024-01-11 11:12:00,SystemResetWarning,0808.5,5.00,000.00,018.8,017.9,000.0,027.2,020.0,9.8,0000.0,0004.12,0008.95,0003.69
2024-01-11 11:13:00,SystemResetWarning,0808.5,4.99,000.00,018.8,017.9,000.0,027.2,020.0,9.7,0000.0,0004.09,0008.98,0003.65
2024-01-11 11:14:00,SystemResetWarning,0808.5,5.00,000.00,018.7,017.8,000.0,027.2,020.0,9.8,0000.0,0004.06,0008.95,0003.63
2024-01-11 11:15:00,SystemResetWarning,0808.5,5.01,000.00,018.8,017.8,000.0,027.2,020.0,9.8,0000.0,0004.05,0009.05,0003.60
2024-01-11 11:16:00,SystemResetWarning,0808.5,5.01,000.00,018.7,017.8,000.0,027.2,020.0,9.8,0000.0,0004.03,0008.75,0003.58
2024-01-11 11:17:00,SystemResetWarning,0808.5,5.00,000.00,018.7,017.8,000.0,027.2,020.0,9.8,0000.0,0004.03,0008.16,0003.56
2024-01-11 11:18:00,SystemResetWarning,0808.5,5.00,000.00,018.7,017.7,000.0,027.2,020.0,9.7,0000.0,0004.00,0008.10,0003.53
2024-01-11 11:19:00,SystemResetWarning,0808.6,4.99,000.00,018.7,017.7,000.0,027.2,020.0,9.7,0000.0,0003.98,0008.04,0003.51
2024-01-11 11:20:00,SystemResetWarning,0808.6,4.99,000.00,018.7,017.7,000.0,027.2,020.0,9.8,0000.0,0003.97,0007.81,0003.50
2024-01-11 11:21:00,SystemResetWarning,0808.6,5.00,000.00,018.7,017.7,000.0,027.2,020.0,9.8,0000.0,0003.94,0007.28,0003.49
2024-01-11 11:22:00,SystemResetWarning,0808.6,5.00,000.00,018.7,017.6,000.0,027.2,020.0,9.8,0000.0,0003.91,0007.10,0003.47
2024-01-11 11:23:00,SystemResetWarning,0808.7,5.00,000.00,018.7,017.6,000.0,027.2,020.0,9.9,0000.0,0003.87,0006.80,0003.45
2024-01-11 11:24:00,SystemResetWarning,0808.7,5.01,000.00,018.7,017.6,000.0,027.2,020.0,9.9,0000.0,0003.84,0006.51,0003.44
2024-01-11 11:25:00,SystemResetWarning,0808.6,5.01,000.00,018.8,017.9,000.0,027.2,020.4,9.9,0000.0,0003.83,0006.52,0003.42
2024-01-11 11:26:00,SystemResetWarning,0808.8,5.00,000.00,018.9,018.7,000.0,027.2,020.8,9.9,0000.0,0003.82,0006.39,0003.40
2024-01-11 11:27:00,SystemResetWarning,0808.8,4.99,000.00,019.0,018.9,000.0,027.2,020.7,9.9,0000.0,0003.78,0006.20,0003.39
2024-01-11 11:28:00,SystemResetWarning,0808.7,4.99,000.00,019.0,018.8,000.0,027.2,020.4,9.9,0000.0,0003.76,0006.23,0003.39
2024-01-11 11:29:00,SystemResetWarning,0808.7,5.00,000.00,019.0,018.7,000.0,027.2,020.3,9.9,0000.0,0003.74,0006.12,0003.38
2024-01-11 11:30:00,SystemResetWarning,0808.7,5.01,000.00,019.0,018.6,000.0,027.2,020.2,10.0,0000.0,0003.74,0006.14,0003.38
2024-01-11 11:31:00,SystemResetWarning,0808.8,5.00,000.00,019.0,018.5,000.0,027.2,020.1,10.0,0000.0,0003.73,0006.25,0003.37
2024-01-11 11:32:00,SystemResetWarning,0808.8,5.00,000.00,018.9,018.4,000.0,027.2,020.1,10.1,0000.0,0003.74,0006.45,0003.36
2024-01-11 11:33:00,SystemResetWarning,0808.8,5.01,000.00,018.9,018.2,000.0,027.2,020.0,10.1,0000.0,0003.74,0006.40,0003.36
2024-01-11 11:34:00,SystemResetWarning,0808.9,5.00,000.00,018.9,018.2,000.0,027.2,020.0,10.2,0000.0,0003.77,0006.51,0003.38
2024-01-11 11:35:00,SystemResetWarning,0808.9,5.00,000.00,018.9,018.1,000.0,027.2,020.0,10.2,0000.0,0003.78,0006.56,0003.40
2024-01-11 11:36:00,SystemResetWarning,0808.9,5.00,000.00,018.8,018.0,000.0,027.2,020.0,10.3,0000.0,0003.77,0006.53,0003.41
2024-01-11 11:37:00,SystemResetWarning,0808.9,5.00,000.00,018.8,017.9,000.0,027.2,020.0,10.3,0000.0,0003.78,0006.54,0003.42
2024-01-11 11:38:00,SystemResetWarning,0808.8,5.00,000.00,018.8,017.9,000.0,027.2,020.0,10.4,0000.0,0003.78,0006.57,0003.42
2024-01-11 11:39:00,SystemResetWarning,0808.8,5.00,000.00,018.8,017.9,000.0,027.3,020.0,10.4,0000.0,0003.77,0006.44,0003.42
2024-01-11 11:40:00,SystemResetWarning,0808.9,5.00,000.00,018.8,017.9,000.0,027.3,020.0,10.5,0000.0,0003.80,0006.77,0003.43
2024-01-11 11:41:00,SystemResetWarning,0808.9,5.00,000.00,018.8,017.8,000.0,027.3,020.0,10.5,0000.0,0003.82,0006.95,0003.43
2024-01-11 11:42:00,SystemResetWarning,0808.9,5.00,000.00,018.8,017.8,000.0,027.3,020.0,10.6,0000.0,0003.82,0006.86,0003.43
2024-01-11 11:43:00,SystemResetWarning,0808.9,5.00,000.00,018.8,017.7,000.0,027.3,020.0,10.6,0000.0,0003.80,0006.65,0003.43
2024-01-11 11:44:00,SystemResetWarning,0808.9,5.00,000.00,018.8,017.7,000.0,027.3,020.0,10.6,0000.0,0003.80,0006.73,0003.43
2024-01-11 11:45:00,SystemResetWarning,0808.9,5.00,000.00,018.8,017.7,000.0,027.3,020.0,10.6,0000.0,0003.77,0006.64,0003.41
2024-01-11 11:46:00,SystemResetWarning,0808.9,5.00,000.00,018.8,017.7,000.0,027.3,020.0,10.7,0000.0,0003.74,0007.07,0003.39
2024-01-11 11:47:00,SystemResetWarning,0808.9,5.00,000.00,018.8,017.7,000.0,027.3,020.0,10.7,0000.0,0003.72,0007.43,0003.37
2024-01-11 11:48:00,SystemResetWarning,0808.9,5.01,000.00,018.7,017.7,000.0,027.3,020.0,10.7,0000.0,0003.73,0007.50,0003.36
2024-01-11 11:49:00,SystemResetWarning,0809.0,5.00,000.00,018.8,017.7,000.0,027.3,020.0,10.7,0000.0,0003.75,0007.52,0003.36
2024-01-11 11:50:00,SystemResetWarning,0809.1,5.00,000.00,018.8,017.7,000.0,027.3,020.0,10.7,0000.0,0003.74,0007.45,0003.35
2024-01-11 11:51:00,SystemResetWarning,0809.0,4.99,000.00,018.8,017.7,000.0,027.3,020.0,10.7,0000.0,0003.71,0007.23,0003.35
2024-01-11 11:52:00,SystemResetWarning,0809.0,4.99,000.00,018.8,017.7,000.0,027.3,020.1,10.6,0000.0,0003.68,0006.94,0003.35
2024-01-11 11:53:00,SystemResetWarning,0809.0,5.00,000.00,018.8,018.2,000.0,027.2,020.5,10.6,0000.0,0003.69,0006.90,0003.35
2024-01-11 11:54:00,SystemResetWarning,0809.0,5.01,000.00,019.0,018.9,000.0,027.3,020.8,10.5,0000.0,0003.69,0006.93,0003.35
2024-01-11 11:55:00,SystemResetWarning,0808.9,5.00,000.00,019.0,018.9,000.0,027.3,020.5,10.5,0000.0,0003.68,0006.81,0003.35
2024-01-11 11:56:00,SystemResetWarning,0808.9,4.98,000.00,019.0,018.8,000.0,027.2,020.1,10.4,0000.0,0003.66,0006.69,0003.35
2024-01-11 11:57:00,SystemResetWarning,0808.9,5.00,000.00,018.9,018.6,000.0,027.3,020.0,10.4,0000.0,0003.65,0006.07,0003.35
2024-01-11 11:58:00,SystemResetWarning,0808.8,5.00,000.00,018.9,018.4,000.0,027.3,020.0,10.4,0000.0,0003.64,0005.58,0003.36
2024-01-11 11:59:00,SystemResetWarning,0808.8,4.99,000.00,018.9,018.2,000.0,027.3,020.0,10.4,0000.0,0003.60,0005.48,0003.35
